RH
81 80 40 39 76 80 71 76 71 60 84 68 56 76 72 100 71 88 100 100 56 14 4 4 5 6 6 7 11 12 16 21 24 21 21 23 26 30 27 33 35 30 26 21 19 20 19
81 78 42 37 78 86 77 77 84 81 86 64 66 85 81 89 82 100 100 89 36 5 3 3 3 5 6 8 12 10 14 21 16 22 23 23 26 29 24 25 28 26 21 22 23 18 15
81 74 37 35 79 92 87 85 87 90 90 70 56 87 79 89 92 100 98 70 18 4 2 3 3 4 5 11 8 10 14 18 14 23 22 27 26 30 25 24 24 23 19 26 20 17 17
79 76 42 32 78 99 98 89 83 92 97 66 83 73 73 68 77 94 82 49 11 3 2 3 3 3 5 8 7 11 12 16 16 22 21 25 25 28 26 23 22 30 20 28 15 23 18
85 80 50 30 78 100 100 89 79 91 98 76 63 69 85 58 78 98 81 55 12 3 2 2 2 2 4 7 7 12 12 15 17 19 21 23 25 27 28 21 26 26 28 37 20 21 22
94 89 62 32 78 100 100 93 80 90 100 80 67 85 100 63 100 96 100 66 18 3 2 2 2 3 5 7 7 11 13 14 18 18 22 20 23 26 29 23 24 40 54 36 28 21 24
100 92 74 33 77 100 100 99 84 94 98 78 74 91 65 79 100 100 100 85 18 4 2 2 3 3 5 7 6 11 13 14 18 17 21 19 20 25 30 33 35 37 40 33 43 25 25
100 86 84 30 72 100 100 99 88 92 95 75 79 67 92 77 100 100 100 98 31 8 2 2 3 4 5 5 6 11 12 14 18 16 21 18 18 29 31 32 31 31 33 47 42 30 22
100 90 79 29 69 100 100 97 93 98 92 64 70 67 62 84 100 100 100 66 28 8 4 4 4 4 5 5 6 8 12 14 18 17 21 18 20 29 29 33 36 33 39 40 41 37 20
100 96 68 37 67 100 100 96 95 100 83 58 87 61 80 82 100 100 100 70 23 8 6 5 4 4 6 6 7 8 12 14 18 19 20 18 19 27 27 34 34 36 41 41 40 38 20
100 100 76 44 65 100 100 95 97 100 82 71 90 68 100 100 100 100 100 74 23 9 8 6 5 7 5 6 8 8 12 14 19 23 19 18 18 25 24 32 33 39 36 37 38 38 25
97 93 91 50 67 100 100 98 94 100 83 71 74 76 100 100 100 100 100 86 23 14 10 7 8 8 5 6 8 9 11 14 17 21 20 20 20 21 23 32 33 33 33 32 36 36 31
97 87 94 56 71 100 100 98 95 100 87 75 84 78 99 100 100 100 100 100 23 22 9 7 10 8 7 8 9 9 10 13 14 18 19 19 20 21 24 25 26 28 27 31 37 38 36
90 93 82 59 74 100 100 100 95 100 85 80 93 67 81 100 100 100 100 100 32 17 12 11 11 9 8 8 9 9 10 12 14 16 23 21 17 20 20 22 26 27 30 34 37 38 33
68 91 74 55 78 100 100 100 98 100 89 73 86 69 72 100 100 100 100 94 46 22 17 16 12 8 9 8 8 8 10 13 13 15 17 20 28 25 25 24 25 26 27 30 34 34 31
73 76 62 59 81 100 100 100 100 100 89 76 64 83 77 100 100 100 100 97 62 33 20 14 12 14 12 11 10 9 9 12 14 14 16 20 25 27 27 24 24 26 27 27 32 33 32
57 84 56 53 82 100 100 100 100 95 93 72 61 78 63 100 100 100 100 83 72 41 23 15 18 20 16 17 18 15 12 11 14 15 15 17 20 22 24 25 25 26 26 27 31 34 32
58 83 64 47 81 100 100 100 98 97 99 84 72 85 64 100 100 98 100 100 72 56 26 20 18 17 18 20 19 18 16 13 13 15 17 16 16 17 20 24 25 26 25 23 30 30 26
64 72 83 47 76 100 100 100 93 96 99 100 77 82 69 100 100 86 100 100 83 77 40 26 23 21 20 20 19 17 15 15 14 14 16 16 16 17 18 20 21 22 22 25 29 26 24
83 66 94 53 65 100 100 100 87 97 100 100 69 83 100 81 100 81 100 100 100 64 58 34 29 26 26 28 26 23 21 20 18 17 17 16 17 18 20 23 24 26 26 26 26 23 21
64 74 92 69 58 100 100 100 88 94 100 99 62 85 89 100 92 90 100 100 100 100 66 60 39 26 27 32 28 27 27 22 20 20 19 20 19 18 18 19 18 18 18 17 18 19 19
72 80 86 52 52 100 100 100 97 85 100 100 85 72 64 100 98 100 100 100 100 100 100 69 51 32 34 38 42 40 40 31 27 27 23 20 19 18 17 16 15 15 15 16 18 19 21
77 80 83 37 49 96 100 100 96 81 100 100 95 54 83 89 100 88 99 100 100 100 100 100 87 56 47 30 33 38 36 36 37 36 29 25 23 21 22 20 18 18 19 20 20 20 22
78 86 83 33 49 95 98 100 94 84 96 100 67 51 61 85 92 100 56 100 100 100 100 100 100 100 88 56 45 35 35 35 39 40 41 38 33 29 31 24 25 30 26 27 28 28 32
75 98 74 42 36 73 97 100 98 94 89 99 54 46 58 72 94 100 100 89 90 96 100 100 96 100 100 100 98 86 58 52 52 46 42 38 40 32 31 36 43 35 34 34 38 41 41
85 92 78 50 29 47 96 100 100 100 82 95 57 43 53 58 82 87 95 100 99 100 75 78 100 100 87 88 100 100 100 100 75 65 60 55 51 53 54 45 37 36 41 51 52 50 52
82 84 77 65 36 40 82 100 100 100 86 89 65 46 53 54 64 67 79 90 82 87 99 79 71 94 98 100 92 88 92 95 100 100 100 100 97 88 78 75 82 74 64 71 78 100 83
76 88 70 69 52 36 56 99 100 100 100 82 76 56 52 58 57 59 58 73 86 88 81 95 89 99 99 79 90 97 100 96 78 100 100 100 100 96 100 100 96 95 84 88 85 80 83
80 89 59 75 65 41 48 89 93 100 100 99 76 60 56 54 67 74 69 72 86 98 91 74 81 70 67 71 73 61 93 100 100 98 82 80 88 94 91 86 91 96 100 100 100 89 83
Wind_Speed
42 42 43 42 45 51 51 54 55 53 56 63 50 45 47 50 52 54 53 59 65 62 57 62 70 87 98 96 95 102 98 96 88 75 68 59 54 51 49 47 44 42 40 38 33 32 31
45 43 42 41 45 50 52 54 52 51 57 59 46 42 49 46 46 50 53 58 61 54 46 52 63 79 92 93 98 106 105 99 87 78 74 62 56 58 51 45 42 38 39 32 33 31 28
46 45 42 41 45 50 53 55 53 51 56 57 47 43 47 44 40 48 49 53 52 47 44 49 55 75 85 96 98 106 108 101 89 82 76 70 65 59 54 48 44 36 33 31 33 27 26
47 46 42 41 43 49 52 54 53 50 55 55 43 44 41 43 45 47 48 50 45 41 41 46 52 64 81 95 101 102 111 104 92 87 81 74 67 61 56 50 44 36 34 32 31 29 24
46 46 44 41 41 48 51 53 52 49 54 52 46 43 45 40 42 50 47 49 42 36 39 40 47 62 79 100 99 101 112 104 96 89 84 78 70 59 54 50 43 37 37 35 29 30 28
47 45 44 40 40 47 49 52 51 47 51 49 42 37 48 44 49 51 52 50 41 29 33 34 42 55 85 101 99 99 111 106 100 94 88 78 70 60 55 46 40 44 44 38 34 31 32
47 45 42 40 40 44 47 51 50 46 50 45 40 36 44 41 50 57 54 54 42 24 25 30 39 58 89 97 97 96 108 107 102 95 83 74 68 57 54 55 53 47 43 41 38 33 34
45 45 40 40 39 42 45 49 48 44 49 44 36 36 41 40 51 59 58 51 43 24 18 27 38 62 84 95 97 96 105 106 101 91 86 79 66 66 65 57 50 48 48 44 40 37 36
46 45 39 40 39 39 43 48 46 43 47 43 32 34 36 47 49 60 60 47 35 20 14 25 39 64 85 91 92 93 100 104 100 96 85 75 70 70 62 57 52 52 47 42 41 39 38
45 45 40 40 38 37 41 45 43 41 45 38 30 30 36 44 51 55 60 47 32 12 10 24 40 65 82 88 87 89 97 106 99 91 86 80 76 74 64 60 56 56 52 44 42 42 41
45 45 41 39 37 36 39 43 40 38 42 29 25 24 30 40 45 50 55 45 27 7 8 24 43 67 80 83 84 83 92 104 99 91 86 80 77 74 65 62 61 64 54 49 46 45 42
46 45 40 38 35 35 37 40 37 34 41 26 21 20 24 32 40 47 52 42 21 10 7 24 47 67 72 75 80 83 84 102 102 94 89 86 85 78 71 70 69 61 52 51 47 45 41
48 46 40 37 34 33 36 38 35 31 38 22 15 15 20 25 34 40 48 41 18 12 9 30 53 62 66 69 70 74 77 97 100 91 88 87 82 79 77 69 65 58 54 51 47 45 48
49 45 39 35 32 32 34 36 34 28 36 19 12 10 14 20 25 32 39 34 14 7 20 37 51 55 58 58 62 66 71 88 96 92 90 83 77 75 68 67 65 60 57 52 48 47 49
51 44 39 33 30 31 33 34 31 27 34 16 11 10 12 14 20 27 31 24 12 16 31 38 43 47 47 48 54 56 61 74 89 90 84 82 82 80 78 75 70 63 57 58 51 50 50
51 44 38 32 29 31 30 32 28 26 31 13 10 10 5 10 13 19 26 20 19 24 28 33 34 30 32 34 39 47 50 59 76 89 89 87 85 81 79 74 68 62 63 56 53 54 54
54 45 38 32 29 30 28 31 26 25 27 14 10 5 2 7 8 14 22 15 23 25 24 28 28 27 27 27 31 37 45 52 58 75 88 90 88 84 80 72 70 68 62 60 59 58 57
51 46 39 33 30 29 26 28 25 24 22 20 11 6 7 6 4 11 18 14 23 25 25 23 26 26 28 29 29 34 41 47 52 59 75 87 89 83 79 76 73 70 65 62 60 60 61
51 47 43 35 31 28 25 26 23 22 22 22 18 11 5 11 6 12 18 15 15 29 25 27 24 24 23 24 27 30 33 39 46 53 62 73 79 80 78 74 69 67 65 64 66 65 64
58 48 46 38 32 28 26 24 21 20 19 19 21 18 13 14 9 8 16 15 13 24 27 26 28 26 23 23 25 28 29 32 38 45 53 61 68 70 71 73 76 73 71 70 68 64 65
55 51 48 42 35 30 26 23 22 18 16 18 18 24 21 16 16 14 16 18 15 13 28 29 31 30 30 28 26 26 28 30 34 40 46 51 58 65 68 69 67 67 67 65 63 65 60
58 54 49 43 36 30 27 23 23 19 17 19 13 29 27 23 14 22 18 13 18 17 15 29 30 32 34 32 31 31 29 29 32 35 39 44 50 56 62 65 66 66 65 63 63 63 62
59 57 51 44 38 33 28 24 23 19 17 19 15 31 33 31 25 24 23 18 18 21 19 18 28 34 33 35 35 33 30 32 32 34 36 40 44 47 49 52 53 53 55 56 58 60 60
66 59 53 45 39 36 29 26 22 18 18 18 17 32 36 36 33 26 25 26 22 27 18 16 20 25 33 39 34 33 35 36 37 36 36 37 38 39 41 44 43 46 49 50 53 54 55
67 63 55 48 43 39 30 28 23 18 18 18 14 30 38 40 38 34 28 26 24 26 24 18 24 19 22 19 28 32 42 41 40 37 36 36 38 41 45 45 45 48 49 52 54 54 56
72 66 58 52 46 44 34 30 27 18 19 18 12 24 39 39 44 41 37 31 27 24 23 26 22 19 17 23 21 22 26 27 33 32 38 43 46 45 48 49 50 51 52 55 58 60 64
76 67 61 56 50 47 38 33 29 21 17 19 12 19 31 35 45 44 41 42 37 32 29 25 29 27 25 24 24 26 23 23 24 24 23 22 28 31 36 38 42 46 47 48 49 51 54
77 71 65 58 53 49 43 37 32 25 18 18 17 12 26 37 37 42 41 40 45 39 35 33 32 29 26 28 28 26 23 23 27 31 29 28 31 31 29 29 31 32 33 37 40 43 45
81 75 69 62 57 52 47 41 36 29 23 17 17 14 15 24 39 39 40 39 41 45 43 40 37 37 38 35 32 33 32 28 31 28 33 38 36 33 34 34 33 38 39 42 41 40 41
Wind_Direction
293 298 301 298 304 308 313 316 317 316 317 319 313 306 305 305 303 304 309 304 294 276 263 248 234 226 217 216 212 210 213 217 217 214 214 212 208 204 205 207 213 215 214 210 213 228 230
295 298 298 297 303 307 312 317 319 317 318 322 309 305 305 307 315 314 309 301 295 279 259 245 233 223 214 208 211 207 210 213 214 211 212 209 209 204 207 207 211 213 206 213 225 228 229
293 296 297 296 302 308 312 317 319 318 319 326 312 304 311 315 312 322 313 305 293 276 256 245 237 219 210 204 209 204 208 210 210 209 211 207 207 204 205 210 215 214 211 226 228 228 238
290 295 297 295 302 308 311 317 319 318 320 328 308 307 307 310 316 331 326 311 297 275 258 243 234 217 205 198 206 202 205 207 207 207 209 208 205 205 205 210 212 216 216 227 219 234 237
286 292 296 295 302 308 311 315 319 318 320 326 312 313 313 316 337 340 336 325 306 279 263 242 230 212 199 198 200 200 202 204 204 206 207 207 204 204 206 210 210 216 224 231 227 232 241
282 290 295 295 301 307 310 314 319 319 322 324 312 319 317 333 349 347 348 338 317 285 261 238 226 207 196 194 197 197 199 201 202 204 206 207 202 202 204 212 215 218 226 229 233 235 239
278 285 293 293 300 307 309 312 319 322 324 324 310 312 322 336 354 350 353 344 327 296 255 230 213 197 192 189 194 196 197 199 202 203 205 207 202 202 204 207 212 219 227 232 234 239 239
273 281 290 290 296 305 307 312 319 322 327 325 311 316 327 352 354 351 357 348 334 313 250 218 203 193 188 187 189 194 196 197 201 202 204 205 200 202 205 209 213 220 228 230 232 235 242
267 276 285 289 294 303 305 310 318 322 329 325 315 321 342 353 0 353 357 350 338 317 244 211 199 191 185 186 187 193 194 196 200 203 202 203 202 205 208 210 213 221 225 228 232 235 243
262 272 280 288 292 301 303 309 319 322 330 325 317 330 348 352 356 358 356 353 346 325 224 208 192 187 182 185 186 192 193 194 200 201 201 203 204 206 209 211 214 219 223 233 236 237 241
257 267 277 285 289 298 300 307 318 322 332 323 320 338 351 348 0 4 1 357 355 347 206 196 181 177 182 181 186 191 193 193 199 200 203 204 207 208 210 213 216 221 224 231 235 237 242
257 260 272 281 285 294 296 305 315 322 331 315 319 344 357 353 354 7 9 3 7 17 199 181 171 173 179 183 186 191 193 194 199 200 199 203 208 209 211 213 220 222 225 233 235 239 243
252 254 265 275 281 289 293 303 312 320 328 305 315 351 0 1 357 7 15 7 19 29 176 164 168 172 181 185 189 191 194 197 200 201 201 205 209 211 214 218 223 224 228 233 235 239 245
244 249 257 268 274 284 289 299 310 318 326 293 301 341 359 14 12 16 22 20 34 44 148 157 165 172 181 187 187 193 196 198 200 201 201 208 214 217 219 221 225 227 228 233 238 239 245
239 242 252 261 267 278 286 296 308 316 322 287 284 317 357 32 22 16 28 37 75 127 144 153 165 173 182 188 190 194 197 200 202 204 207 209 211 217 219 222 225 228 230 235 238 241 246
235 240 248 254 261 271 280 293 304 312 321 282 276 303 14 46 19 34 39 49 123 140 148 154 160 170 181 189 193 195 198 202 204 207 208 211 214 217 221 223 225 229 232 234 238 241 244
235 236 243 247 255 265 274 288 300 307 318 297 252 273 126 46 23 61 52 74 146 154 157 155 158 160 175 182 189 196 200 202 204 208 211 213 217 220 222 224 227 230 232 236 238 241 244
229 233 240 240 249 258 267 283 295 302 315 323 219 218 176 109 45 84 78 66 157 171 167 170 167 171 173 173 184 191 197 200 203 204 208 213 216 219 223 225 227 231 235 237 238 242 245
227 228 236 236 244 251 260 276 289 296 308 325 210 192 206 146 159 116 101 79 156 183 183 174 176 179 176 176 179 183 190 195 201 204 207 211 215 219 223 228 231 234 234 235 237 242 244
222 225 231 232 237 244 253 267 280 287 297 321 211 194 192 155 152 168 125 100 119 184 187 182 178 182 178 178 178 175 179 188 194 200 205 210 213 216 220 222 224 228 231 235 239 242 245
210 217 222 227 230 237 246 258 273 278 285 307 223 195 186 193 181 168 161 131 126 131 191 188 185 190 187 184 184 180 183 188 195 199 204 207 213 216 220 224 228 232 235 238 239 242 245
208 213 218 221 224 230 237 249 266 274 274 293 264 199 189 183 198 167 161 151 143 134 151 193 197 191 191 193 193 186 188 187 190 199 207 208 210 215 221 225 229 231 233 236 240 241 244
204 208 213 215 218 226 231 238 255 265 268 283 296 207 195 193 189 183 179 173 161 153 141 160 191 203 202 202 200 204 204 199 199 199 202 207 210 212 217 223 227 231 233 237 240 243 246
201 205 210 210 214 223 224 233 248 254 263 280 282 206 199 193 200 199 188 175 175 170 165 156 163 185 203 214 212 209 208 208 210 211 212 214 215 215 219 221 223 227 230 235 239 244 248
197 201 206 209 211 222 219 229 242 248 256 272 265 207 203 197 199 198 204 195 179 185 181 172 177 166 166 176 200 207 222 225 226 223 225 226 226 227 225 223 228 233 236 238 241 243 244
195 198 203 205 209 220 216 225 238 242 249 263 261 209 203 203 204 204 203 208 208 197 198 193 182 185 195 186 180 178 186 196 216 215 225 231 233 235 237 237 239 238 239 243 247 250 254
194 196 201 204 207 217 216 221 232 237 241 252 262 212 206 209 207 209 214 213 210 205 207 208 205 197 196 190 192 197 193 197 185 196 200 205 217 222 228 232 234 237 240 242 244 239 246
193 194 201 205 207 213 216 218 226 230 235 242 252 233 206 207 212 213 215 219 221 223 221 213 208 211 217 218 210 202 204 203 206 207 206 211 214 213 212 219 221 229 237 238 240 243 246
192 195 200 204 206 211 215 216 222 224 230 236 250 245 225 212 213 218 223 225 221 223 229 227 226 224 225 227 226 223 221 213 212 211 216 221 223 224 226 223 226 230 236 237 237 244 248